Weather History for Fredericksburg, TX

Change the Weather History Date:

Saturday, December 7, 2013

  Actual Average (KSAT) Record (KSAT)
Temperature  
Mean Temperature 24 °F 54 °F  
Max Temperature 27 °F 65 °F 83 °F (1994)
Min Temperature 21 °F 43 °F 14 °F (1950)
Degree Days  
Heating Degree Days 41 11  
Month to date heating degree days 75  
Since 1 July heating degree days 286  
Cooling Degree Days 0 1  
Month to date cooling degree days 7  
Year to date cooling degree days 3124  
Moisture  
Dew Point 20 °F    
Average Humidity 82    
Maximum Humidity 86    
Minimum Humidity 76    
Precipitation  
Precipitation 0.00 in 0.07 in 1.45 in (1960)
Month to date precipitation 0.41  
Year to date precipitation 30.77  
Snow  
Snow 0.00 in - - ()
Month to date snowfall  
Since 1 July snowfall  
Snow Depth -    
Sea Level Pressure  
Sea Level Pressure 30.32 in    
Wind  
Wind Speed 11 mph (North)    
Max Wind Speed 17 mph    
Max Gust Speed 23 mph    
Visibility 10 miles    
Events      
T = Trace of Precipitation, MM = Missing Value Source: NWS Daily Summary

Daily Weather History Graph

Daily Weather History Graph

Search for Another Location

Airport:

Trip Planner

Search our weather history database for the weather conditions in past years. The results will help you decide how hot, cold, wet, or windy it might be!

Date:

Astronomy

Dec. 07, 2013 Rise Set
Actual Time 7:19 AM CST 5:35 PM CST
Civil Twilight 6:52 AM CST 6:01 PM CST
Nautical Twilight 6:23 AM CST 6:31 PM CST
Astronomical Twilight 5:54 AM CST 7:00 PM CST
Moon 11:19 AM CST (12/7) 11:02 PM CST (12/7)
Length of Visible Light 11h 08m
Length of Day
10h 15m
Waxing Crescent, 29% of the Moon is Illuminated
Dec 7
Waxing Crescent
Dec 9
First Quarter
Dec 17
Full
Dec 25
Last Quarter
Jan 1
New

Hourly Weather History & Observations

Time (CST) Temp. Windchill Dew Point Humidity Pressure Visibility Wind Dir Wind Speed Gust Speed Precip Events Conditions
12:15 AM 23.9 °F 11.7 °F 20.1 °F 85% 30.39 in 10.0 mi North 13.8 mph 19.6 mph N/A   Scattered Clouds
12:35 AM 23.7 °F 12.6 °F 19.8 °F 85% 30.38 in 10.0 mi North 11.5 mph - N/A   Scattered Clouds
12:55 AM 23.4 °F 10.6 °F 19.8 °F 86% 30.37 in 10.0 mi North 15.0 mph 20.7 mph N/A   Clear
1:15 AM 23.0 °F 9.2 °F 19.4 °F 86% 30.36 in 10.0 mi North 17.3 mph - N/A   Scattered Clouds
1:35 AM 23.0 °F 10.6 °F 19.4 °F 86% 30.36 in 10.0 mi North 13.8 mph 19.6 mph N/A   Scattered Clouds
1:55 AM 22.8 °F 11.5 °F 19.2 °F 86% 30.36 in 10.0 mi NNE 11.5 mph 17.3 mph N/A   Scattered Clouds
2:15 AM 22.8 °F 10.9 °F 19.0 °F 85% 30.36 in 10.0 mi North 12.7 mph 17.3 mph N/A   Mostly Cloudy
2:35 AM 22.6 °F 10.7 °F 18.9 °F 85% 30.35 in 10.0 mi NNE 12.7 mph 20.7 mph N/A   Overcast
2:55 AM 22.6 °F 11.9 °F 18.5 °F 84% 30.35 in 10.0 mi North 10.4 mph - N/A   Overcast
3:15 AM 22.6 °F 9.2 °F 18.3 °F 83% 30.35 in 10.0 mi North 16.1 mph 23.0 mph N/A   Overcast
3:35 AM 22.5 °F 9.4 °F 18.1 °F 83% 30.35 in 10.0 mi North 15.0 mph 20.7 mph N/A   Overcast
3:55 AM 22.5 °F 12.4 °F 18.0 °F 83% 30.35 in 10.0 mi North 9.2 mph 23.0 mph N/A   Overcast
4:15 AM 22.1 °F 10.6 °F 17.6 °F 83% 30.36 in 10.0 mi NNE 11.5 mph 20.7 mph N/A   Overcast
4:35 AM 22.3 °F 10.8 °F 18.1 °F 84% 30.36 in 10.0 mi NNE 11.5 mph 16.1 mph N/A   Overcast
4:55 AM 22.1 °F 10.0 °F 17.6 °F 83% 30.35 in 10.0 mi North 12.7 mph 20.7 mph N/A   Overcast
5:15 AM 22.1 °F 11.3 °F 17.8 °F 83% 30.35 in 10.0 mi NNE 10.4 mph - N/A   Overcast
5:35 AM 22.1 °F 11.3 °F 17.4 °F 82% 30.36 in 10.0 mi North 10.4 mph - N/A   Overcast
5:55 AM 22.1 °F 12.8 °F 17.2 °F 82% 30.38 in 10.0 mi NNE 8.1 mph - N/A   Overcast
6:15 AM 22.1 °F 11.3 °F 17.2 °F 82% 30.38 in 10.0 mi NNE 10.4 mph 17.3 mph N/A   Overcast
6:35 AM 22.1 °F 10.6 °F 17.2 °F 82% 30.39 in 10.0 mi North 11.5 mph - N/A   Overcast
6:55 AM 22.1 °F 12.0 °F 17.2 °F 82% 30.39 in 10.0 mi NNE 9.2 mph - N/A   Overcast
7:15 AM 22.1 °F 10.6 °F 17.2 °F 82% 30.40 in 10.0 mi NNE 11.5 mph - N/A   Overcast
7:35 AM 21.9 °F 11.0 °F 16.9 °F 81% 30.40 in 10.0 mi North 10.4 mph - N/A   Overcast
7:55 AM 21.7 °F 9.6 °F 16.7 °F 81% 30.41 in 10.0 mi North 12.7 mph - N/A   Overcast
8:15 AM 21.9 °F 11.7 °F 16.7 °F 80% 30.42 in 10.0 mi North 9.2 mph - N/A   Overcast
8:35 AM 22.1 °F 11.3 °F 16.9 °F 80% 30.41 in 10.0 mi North 10.4 mph 16.1 mph N/A   Overcast
8:55 AM 21.9 °F 10.4 °F 16.5 °F 80% 30.42 in 10.0 mi North 11.5 mph - N/A   Overcast
9:15 AM 22.1 °F 11.3 °F 16.7 °F 80% 30.42 in 10.0 mi North 10.4 mph - N/A   Overcast
9:35 AM 22.8 °F 11.5 °F 17.2 °F 79% 30.41 in 10.0 mi North 11.5 mph - N/A   Overcast
9:55 AM 22.8 °F 12.2 °F 17.1 °F 79% 30.41 in 10.0 mi North 10.4 mph - N/A   Overcast
10:15 AM 23.0 °F 12.4 °F 17.4 °F 79% 30.40 in 10.0 mi North 10.4 mph - N/A   Overcast
10:35 AM 23.9 °F 12.3 °F 18.3 °F 79% 30.40 in 10.0 mi North 12.7 mph - N/A   Overcast
10:55 AM 24.1 °F 13.7 °F 18.3 °F 79% 30.40 in 10.0 mi North 10.4 mph - N/A   Overcast
11:15 AM 25.0 °F 14.8 °F 19.0 °F 78% 30.39 in 10.0 mi NNW 10.4 mph - N/A   Overcast
11:35 AM 24.8 °F 14.6 °F 18.7 °F 78% 30.38 in 10.0 mi North 10.4 mph - N/A   Overcast
11:55 AM 25.2 °F 15.1 °F 18.7 °F 76% 30.37 in 10.0 mi North 10.4 mph - N/A   Overcast
12:15 PM 25.5 °F 15.5 °F 19.4 °F 78% 30.36 in 10.0 mi North 10.4 mph - N/A   Overcast
12:35 PM 25.9 °F 16.0 °F 19.8 °F 78% 30.35 in 10.0 mi North 10.4 mph - N/A   Overcast
12:55 PM 26.2 °F 15.8 °F 20.3 °F 78% 30.34 in 10.0 mi NNW 11.5 mph - N/A   Overcast
1:15 PM 25.5 °F 16.2 °F 19.9 °F 79% 30.32 in 10.0 mi NNW 9.2 mph - N/A   Overcast
1:35 PM 26.1 °F 16.8 °F 20.3 °F 79% 30.31 in 10.0 mi North 9.2 mph - N/A   Overcast
1:55 PM 26.1 °F 16.8 °F 20.7 °F 80% 30.29 in 10.0 mi North 9.2 mph - N/A   Overcast
2:15 PM 26.4 °F 18.0 °F 20.5 °F 78% 30.27 in 10.0 mi North 8.1 mph - N/A   Overcast
2:35 PM 26.4 °F 18.0 °F 21.0 °F 80% 30.26 in 10.0 mi North 8.1 mph - N/A   Overcast
2:55 PM 26.6 °F 20.0 °F 21.2 °F 80% 30.26 in 10.0 mi North 5.8 mph - N/A   Overcast
3:15 PM 26.6 °F 19.1 °F 21.4 °F 81% 30.24 in 10.0 mi North 6.9 mph - N/A   Overcast
3:35 PM 27.0 °F 19.5 °F 21.4 °F 79% 30.23 in 10.0 mi North 6.9 mph - N/A   Overcast
3:55 PM 26.8 °F 18.5 °F 21.4 °F 80% 30.24 in 10.0 mi North 8.1 mph - N/A   Overcast
4:15 PM 27.0 °F 20.5 °F 21.9 °F 81% 30.24 in 10.0 mi North 5.8 mph - N/A   Overcast
4:35 PM 27.1 °F 20.7 °F 22.1 °F 81% 30.24 in 10.0 mi North 5.8 mph - N/A   Overcast
4:55 PM 27.3 °F 22.0 °F 22.5 °F 82% 30.23 in 10.0 mi NNE 4.6 mph - N/A   Overcast
5:15 PM 27.0 °F 18.7 °F 22.1 °F 82% 30.23 in 10.0 mi NNE 8.1 mph - N/A   Overcast
5:35 PM 26.8 °F 22.8 °F 22.1 °F 83% 30.23 in 10.0 mi NNE 3.5 mph - N/A   Overcast
5:55 PM 26.6 °F 20.0 °F 22.1 °F 83% 30.24 in 10.0 mi North 5.8 mph - N/A   Overcast
6:15 PM 26.6 °F 20.0 °F 22.3 °F 84% 30.23 in 10.0 mi NE 5.8 mph - N/A   Overcast
6:35 PM 26.2 °F 19.6 °F 21.9 °F 84% 30.24 in 10.0 mi NNE 5.8 mph - N/A   Overcast
6:55 PM 26.2 °F 18.6 °F 22.1 °F 84% 30.26 in 10.0 mi North 6.9 mph - N/A   Overcast
7:15 PM 26.1 °F 19.4 °F 21.9 °F 84% 30.24 in 10.0 mi NNE 5.8 mph - N/A   Overcast
7:35 PM 26.1 °F 19.4 °F 21.7 °F 84% 30.26 in 10.0 mi North 5.8 mph - N/A   Overcast
7:55 PM 26.1 °F 18.4 °F 21.9 °F 84% 30.24 in 10.0 mi NNE 6.9 mph - N/A   Overcast
8:15 PM 25.9 °F 18.2 °F 21.7 °F 84% 30.26 in 10.0 mi North 6.9 mph - N/A   Overcast
8:35 PM 26.1 °F 19.4 °F 21.7 °F 84% 30.23 in 10.0 mi NE 5.8 mph - N/A   Overcast
8:55 PM 25.9 °F 20.3 °F 21.7 °F 84% 30.24 in 10.0 mi NNE 4.6 mph - N/A   Overcast
9:15 PM 26.1 °F 21.9 °F 21.7 °F 84% 30.25 in 10.0 mi NE 3.5 mph - N/A   Overcast
9:35 PM 26.2 °F 19.6 °F 21.9 °F 84% 30.25 in 10.0 mi North 5.8 mph - N/A   Overcast
9:55 PM 26.2 °F 19.6 °F 22.1 °F 84% 30.24 in 10.0 mi North 5.8 mph - N/A   Overcast
10:15 PM 26.1 °F 20.5 °F 21.9 °F 84% 30.25 in 10.0 mi North 4.6 mph - N/A   Overcast
10:35 PM 25.9 °F 21.7 °F 21.9 °F 85% 30.25 in 10.0 mi North 3.5 mph - N/A   Overcast
10:55 PM 26.1 °F 20.5 °F 22.1 °F 85% 30.24 in 10.0 mi NNE 4.6 mph - N/A   Overcast
11:15 PM 25.7 °F - 21.7 °F 85% 30.23 in 10.0 mi Calm Calm - N/A   Overcast
11:35 PM 25.7 °F 21.5 °F 21.9 °F 86% 30.22 in 10.0 mi ENE 3.5 mph - N/A   Overcast
11:55 PM 25.7 °F 21.5 °F 21.7 °F 85% 30.21 in 10.0 mi ENE 3.5 mph - N/A   Overcast